User: anonymous   Login
Location: Syracuse
(43.0480°N, 76.1480°W)
Time: 20:35:24
(UTC-05:00)
Language:

Cosmos 1140 Rocket - Orbit

View from above orbital plane
View from above orbital plane
View from above satellite
View from above satellite

Ground track
Ground track

The orbit data is extracted from the following two-line orbital elements,

1 11574U 79089B   14328.01192806  .00000285  00000-0  98133-4 0  8932
2 11574 074.0687 146.7763 0017020 289.4405 196.7132 14.40328656842358
Epoch (UTC): 24 November 2014 00:17:10
Eccentricity: 0.0017020
inclination: 74.0687°
perigee height: 745 km
apogee height: 769 km
right ascension of ascending node: 146.7763°
argument of perigee: 289.4405°
revolutions per day: 14.40328656
mean anomaly at epoch: 196.7132°
orbit number at epoch: 84235

The dashed part of the orbit path shows where the satellite is in the earth's shadow,  

DLR